Hourly Data Report for October 10, 2014

All times are specified in Local Standard Time (LST). Add 1 hour to adjust for Daylight Saving Time where and when it is observed.

TORONTO INTL A
ONTARIO

43°40'36.000" N
79°37'50.000" W
173.40 m
6158731
71624
YYZ

Download Data

Hourly Data (October 2014)
Hourly Data Report for October 10, 2014
Temp Definition
°C
Dew Point Temp Definition
°C
Rel Hum Definition
%
Wind Dir Definition
10's deg

Wind Spd Definition
km/h
Visibility Definition
km
Stn Press Definition
kPa
Hmdx Definition


Wind Chill Definition


Weather Definition


TIME
00:00 Legend Double Dagger 5.4 2.4 81 26 10 24.1 99.68     LegendNANA
01:00 Legend Double Dagger 5.3 2.8 84 25 13 24.1 99.72     Mainly Clear
02:00 Legend Double Dagger 5.2 3.2 87 24 13 24.1 99.76     LegendNANA
03:00 Legend Double Dagger 5.0 3.0 87 24 10 24.1 99.73     LegendNANA
04:00 Legend Double Dagger 4.1 2.5 89 25 10 24.1 99.76     Clear
05:00 Legend Double Dagger 4.5 2.7 88 25 13 24.1 99.81     LegendNANA
06:00 Legend Double Dagger 4.9 2.9 87 26 10 24.1 99.86     LegendNANA
07:00 Legend Double Dagger 5.1 3.1 87 27 13 24.1 99.87     Mostly Cloudy
08:00 Legend Double Dagger 7.7 4.3 79 26 17 24.1 99.93     LegendNANA
09:00 Legend Double Dagger 9.3 3.7 68 28 22 24.1 99.93     LegendNANA
10:00 Legend Double Dagger 11.1 3.0 57 26 19 24.1 99.93     Mostly Cloudy
11:00 Legend Double Dagger 12.0 2.2 51 24 11 24.1 99.90     LegendNANA
12:00 Legend Double Dagger 12.4 2.0 49 28 16 24.1 99.88     LegendNANA
13:00 Legend Double Dagger 12.5 1.6 47 32 14 24.1 99.84     Mostly Cloudy
14:00 Legend Double Dagger 13.4 1.1 43 30 20 24.1 99.81     LegendNANA
15:00 Legend Double Dagger 12.6 1.6 47 27 26 24.1 99.82     LegendNANA
16:00 Legend Double Dagger 11.7 2.2 52 27 23 24.1 99.82     Mostly Cloudy
17:00 Legend Double Dagger 11.1 1.9 53 31 19 24.1 99.85     LegendNANA
18:00 Legend Double Dagger 9.8 2.2 59 32 24 24.1 99.90     LegendNANA
19:00 Legend Double Dagger 8.8 1.5 60 30 16 24.1 99.92     Mainly Clear
20:00 Legend Double Dagger 8.1 2.2 66 32 16 24.1 99.94     LegendNANA
21:00 Legend Double Dagger 7.3 1.8 68 31 12 24.1 99.95     LegendNANA
22:00 Legend Double Dagger 6.6 1.9 72 31 10 24.1 99.97     Mostly Cloudy
23:00 Legend Double Dagger 5.8 2.3 78 30 13 24.1 99.97     LegendNANA

Notes on Data Quality.

Legend

  • E = Estimated
  • M = Missing
  • NA = Not Available
  • ‡ = Partner data that is not subject to review by the National Climate Archives
Date modified: